Terminal Aerodrome Forecast
Issued by NWS Grand Forks, ND

Home | Current Version | Previous Version | Text Only | Print | Product List | Glossary On
Versions: 1 2 3 4 5 6 7 8 9 10 11 12 13
000
FTUS43 KFGF 201100
TAFFAR
TAF
KFAR 201121Z 2012/2112 18007KT 5SM BR OVC007
      TEMPO 2013/2015 2SM BR
     FM201800 16010KT P6SM OVC012=

USA.gov is the U.S. government's official web portal to all federal, state and local government web resources and services.